Weather History for KMHR - January, 2014

Change the Weather History Date:

Tuesday, January 7, 2014

  Actual Average Record
Temperature  
Mean Temperature 48 °F -  
Max Temperature 62 °F 50 °F 64 °F (2015)
Min Temperature 35 °F 38 °F 32 °F (2001)
Degree Days  
Heating Degree Days 16    
Moisture  
Dew Point 32 °F    
Average Humidity 64    
Maximum Humidity 87    
Minimum Humidity 29    
Precipitation  
Precipitation 0.00 in - - ()
Sea Level Pressure  
Sea Level Pressure 30.16 in    
Wind  
Wind Speed 2 mph (SE)    
Max Wind Speed 7 mph    
Max Gust Speed -    
Visibility 10 miles    
Events      
Averages and records for this station are not official NWS values.
T = Trace of Precipitation, MM = Missing Value Source: NWS Daily Summary

Daily Weather History Graph

Daily Weather History Graph

Search for Another Location

Airport or City:

Trip Planner

Search our weather history database for the weather conditions in past years. The results will help you decide how hot, cold, wet, or windy it might be!

Date:

Astronomy

Jan. 07, 2014 Rise Set
Actual Time 7:23 AM PST 5:00 PM PST
Civil Twilight 6:53 AM PST 5:29 PM PST
Nautical Twilight 6:20 AM PST 6:02 PM PST
Astronomical Twilight 5:48 AM PST 6:34 PM PST
Moon 11:20 AM PST (1/7) No Moon Set
Length of Visible Light 10h 36m
Length of Day
9h 37m
Waxing Crescent, 46% of the Moon is Illuminated
Jan 7
Waxing Crescent
Jan 7
First Quarter
Jan 15
Full
Jan 23
Last Quarter
Jan 30
New

Hourly Weather History & Observations

Time (PST) Temp. Windchill Dew Point Humidity Pressure Visibility Wind Dir Wind Speed Gust Speed Precip Events Conditions
2:53 AM 37.4 °F 34.9 °F 32.0 °F 81% 30.18 in 10.0 mi ESE 3.5 mph - N/A   Clear
3:45 AM 35.6 °F - 32.0 °F 87% 30.18 in 10.0 mi Calm Calm - N/A   Clear
4:45 AM 37.4 °F - 32.0 °F 81% 30.17 in 10.0 mi Calm Calm - N/A   Clear
5:45 AM 35.6 °F - 32.0 °F 87% 30.17 in 10.0 mi Calm Calm - N/A   Partly Cloudy
6:46 AM 37.4 °F - 32.0 °F 81% 30.18 in 10.0 mi Calm Calm - N/A   Mostly Cloudy
7:46 AM 37.4 °F - 32.0 °F 81% 30.17 in 10.0 mi Calm Calm - N/A   Mostly Cloudy
8:46 AM 42.8 °F 41.1 °F 35.6 °F 76% 30.19 in 10.0 mi ENE 3.5 mph - N/A   Mostly Cloudy
9:49 AM 44.6 °F - 37.4 °F 76% 30.20 in 10.0 mi Calm Calm - N/A   Mostly Cloudy
10:48 AM 50.0 °F - 35.6 °F 58% 30.21 in 10.0 mi Calm Calm - N/A   Mostly Cloudy
11:45 AM 53.6 °F - 32.0 °F 44% 30.20 in 10.0 mi Calm Calm - N/A   Scattered Clouds
12:48 PM 57.2 °F - 28.4 °F 33% 30.16 in 10.0 mi Calm Calm - N/A   Partly Cloudy
1:45 PM 60.8 °F - 28.4 °F 29% 30.13 in 10.0 mi Calm Calm - N/A   Partly Cloudy
2:45 PM 62.6 °F - 30.2 °F 30% 30.13 in 10.0 mi SSE 4.6 mph - N/A   Scattered Clouds
3:49 PM - - - N/A% 30.13 in 10.0 mi SSW 4.6 mph - N/A   Scattered Clouds
4:49 PM - - - N/A% 30.13 in 10.0 mi Calm Calm - N/A   Scattered Clouds
5:50 PM 50.0 °F - 32.0 °F 50% 30.14 in 10.0 mi SSW 3.5 mph - N/A   Scattered Clouds
6:55 PM 48.2 °F - 32.0 °F 54% 30.11 in 10.0 mi SSE 5.8 mph - N/A   Clear
7:47 PM 46.4 °F 45.2 °F 32.0 °F 57% 30.14 in 10.0 mi ESE 3.5 mph - N/A   Clear
8:55 PM 44.6 °F 43.1 °F 32.0 °F 61% 30.17 in 10.0 mi NNE 3.5 mph - N/A   Clear
9:50 PM 39.2 °F 34.2 °F 32.0 °F 75% 30.16 in 10.0 mi ESE 6.9 mph - N/A   Clear
10:50 PM 42.8 °F 38.6 °F 32.0 °F 66% 30.17 in 10.0 mi East 6.9 mph - N/A   Clear